Location: G�ndlingen
(48.0142°N, 7.6396°E)
Time: 02:58:00
(UTC+00:00)

Cosmos 2366 rocket - Pass Details

Date: 05 July 2020
Orbit: 954 x 998 km, 82.9° (Epoch: 04 August)

Event Time Altitude Azimuth Distance (km) Brightness Sun altitude
Exits shadow 22:56:31 31° 164° (SSE) 1,674 4.7 -18.8°
Maximum altitude 22:59:37 64° 94° (E) 1,100 4.2 -18.9°
Drops below altitude 10° 23:05:54 10° 14° (NNE) 2,771 7.4 -19.0°
Sets 23:08:27 0° 12° (NNE) 3,720 8.4 -19.1°
